| time (UTC) | temp F | wind direction | speed MPH | gust MPH | rain 1hr in | rain 24hr in | rain mn in | humidity % | barometer mb |
| 20260506235813 | 42 | 0 | 0.0 | 3.0 | 0.00 | 0.29 | 0.28 | 97 | 1009.2 |
| 20260506234913 | 43 | 0 | 0.0 | 1.0 | 0.00 | 0.29 | 0.28 | 97 | 1009.2 |
| 20260506234013 | 43 | 0 | 0.0 | 1.0 | 0.00 | 0.29 | 0.28 | 97 | 1009.1 |
| 20260506233113 | 43 | 0 | 0.0 | 2.0 | 0.00 | 0.29 | 0.28 | 97 | 1009.0 |
| 20260506232213 | 43 | 0 | 0.0 | 1.0 | 0.00 | 0.29 | 0.28 | 97 | 1009.1 |
| 20260506231313 | 43 | 282 | 0.0 | 3.0 | 0.00 | 0.29 | 0.28 | 97 | 1008.9 |
| 20260506230413 | 43 | 303 | 1.0 | 6.0 | 0.00 | 0.29 | 0.28 | 97 | 1008.8 |
| 20260506225513 | 43 | 290 | 1.0 | 6.0 | 0.00 | 0.29 | 0.28 | 97 | 1008.8 |
| 20260506224613 | 43 | 297 | 1.0 | 5.0 | 0.00 | 0.29 | 0.28 | 97 | 1008.8 |
| 20260506223713 | 44 | 301 | 1.0 | 3.0 | 0.00 | 0.29 | 0.28 | 97 | 1008.5 |
| 20260506222813 | 44 | 296 | 1.0 | 6.0 | 0.00 | 0.29 | 0.28 | 97 | 1008.2 |
| 20260506221913 | 44 | 296 | 1.0 | 4.0 | 0.00 | 0.29 | 0.28 | 97 | 1008.1 |
| 20260506221013 | 44 | 302 | 1.0 | 5.0 | 0.00 | 0.29 | 0.28 | 97 | 1007.9 |
| 20260506220113 | 44 | 301 | 1.0 | 10.0 | 0.00 | 0.29 | 0.28 | 98 | 1007.9 |
| 20260506215213 | 44 | 290 | 1.0 | 4.0 | 0.00 | 0.29 | 0.28 | 97 | 1008.0 |
| 20260506213413 | 45 | 304 | 1.0 | 6.0 | 0.00 | 0.29 | 0.28 | 98 | 1007.9 |
| 20260506212513 | 45 | 301 | 2.0 | 6.0 | 0.00 | 0.29 | 0.28 | 98 | 1007.7 |
| 20260506211613 | 45 | 314 | 2.0 | 7.0 | 0.00 | 0.29 | 0.28 | 97 | 1007.4 |
| 20260506205813 | 45 | 299 | 1.0 | 6.0 | 0.01 | 0.29 | 0.28 | 97 | 1007.1 |
| 20260506204913 | 46 | 304 | 1.0 | 6.0 | 0.01 | 0.29 | 0.28 | 97 | 1007.0 |
| 20260506204013 | 46 | 294 | 0.0 | 8.0 | 0.01 | 0.29 | 0.28 | 97 | 1006.8 |
| 20260506203113 | 46 | 0 | 0.0 | 2.0 | 0.02 | 0.29 | 0.28 | 97 | 1006.6 |
| 20260506202213 | 46 | 296 | 1.0 | 4.0 | 0.02 | 0.29 | 0.28 | 97 | 1006.2 |
| 20260506201313 | 46 | 288 | 1.0 | 3.0 | 0.01 | 0.28 | 0.27 | 97 | 1006.2 |
| 20260506195513 | 47 | 315 | 2.0 | 8.0 | 0.01 | 0.34 | 0.27 | 97 | 1006.3 |
| 20260506193713 | 47 | 307 | 1.0 | 7.0 | 0.01 | 0.34 | 0.27 | 97 | 1006.1 |
| 20260506192813 | 47 | 295 | 1.0 | 4.0 | 0.00 | 0.33 | 0.26 | 97 | 1005.9 |
| 20260506191913 | 47 | 299 | 1.0 | 4.0 | 0.01 | 0.33 | 0.26 | 96 | 1006.0 |
| 20260506191013 | 48 | 303 | 1.0 | 7.0 | 0.01 | 0.33 | 0.26 | 96 | 1005.7 |
| 20260506190113 | 48 | 293 | 1.0 | 4.0 | 0.01 | 0.33 | 0.26 | 96 | 1005.6 |
| 20260506185213 | 48 | 300 | 1.0 | 5.0 | 0.01 | 0.33 | 0.26 | 96 | 1005.6 |
| 20260506184313 | 49 | 291 | 2.0 | 5.0 | 0.01 | 0.33 | 0.26 | 95 | 1005.6 |
| 20260506183413 | 49 | 297 | 2.0 | 6.0 | 0.01 | 0.33 | 0.26 | 94 | 1005.6 |
| 20260506182513 | 51 | 308 | 3.0 | 8.0 | 0.01 | 0.33 | 0.26 | 94 | 1005.4 |
| 20260506181613 | 52 | 319 | 3.0 | 14.0 | 0.00 | 0.32 | 0.25 | 92 | 1005.2 |
| 20260506180713 | 57 | 221 | 3.0 | 14.0 | 0.00 | 0.32 | 0.25 | 94 | 1005.0 |
| 20260506175813 | 57 | 195 | 3.0 | 10.0 | 0.00 | 0.32 | 0.25 | 94 | 1004.8 |
| 20260506174913 | 57 | 196 | 4.0 | 10.0 | 0.00 | 0.32 | 0.25 | 95 | 1004.8 |
| 20260506174013 | 56 | 198 | 4.0 | 10.0 | 0.00 | 0.32 | 0.25 | 95 | 1004.8 |
| 20260506173113 | 56 | 194 | 4.0 | 11.0 | 0.00 | 0.32 | 0.25 | 95 | 1004.8 |
| 20260506171313 | 56 | 203 | 4.0 | 12.0 | 0.01 | 0.32 | 0.25 | 95 | 1004.8 |
| 20260506170413 | 56 | 193 | 4.0 | 11.0 | 0.01 | 0.32 | 0.25 | 96 | 1005.0 |
| 20260506164613 | 56 | 193 | 4.0 | 9.0 | 0.01 | 0.32 | 0.25 | 96 | 1005.1 |
| 20260506162813 | 56 | 182 | 4.0 | 8.0 | 0.02 | 0.32 | 0.25 | 96 | 1004.9 |
| 20260506161913 | 55 | 181 | 4.0 | 11.0 | 0.02 | 0.31 | 0.24 | 96 | 1005.2 |
| 20260506161013 | 55 | 183 | 5.0 | 8.0 | 0.02 | 0.31 | 0.24 | 96 | 1005.1 |
| 20260506160113 | 55 | 184 | 4.0 | 8.0 | 0.03 | 0.31 | 0.24 | 96 | 1005.2 |
| 20260506155213 | 55 | 183 | 5.0 | 8.0 | 0.03 | 0.31 | 0.24 | 96 | 1005.3 |
| 20260506154313 | 55 | 176 | 5.0 | 12.0 | 0.03 | 0.31 | 0.24 | 96 | 1005.2 |
| 20260506153413 | 55 | 184 | 5.0 | 12.0 | 0.03 | 0.31 | 0.24 | 96 | 1005.4 |
| 20260506152513 | 55 | 184 | 6.0 | 12.0 | 0.03 | 0.30 | 0.23 | 96 | 1005.4 |
| 20260506151613 | 55 | 182 | 6.0 | 10.0 | 0.02 | 0.29 | 0.22 | 96 | 1005.5 |
| 20260506144913 | 54 | 168 | 3.0 | 8.0 | 0.04 | 0.28 | 0.21 | 97 | 1005.1 |
| 20260506144013 | 54 | 170 | 3.0 | 6.0 | 0.04 | 0.28 | 0.21 | 97 | 1005.1 |
| 20260506143113 | 54 | 165 | 3.0 | 6.0 | 0.05 | 0.28 | 0.21 | 97 | 1005.3 |
| 20260506142213 | 54 | 170 | 2.0 | 6.0 | 0.06 | 0.27 | 0.20 | 97 | 1005.3 |
| 20260506141313 | 54 | 167 | 1.0 | 7.0 | 0.07 | 0.27 | 0.20 | 97 | 1005.3 |
| 20260506140413 | 54 | 150 | 1.0 | 6.0 | 0.07 | 0.26 | 0.19 | 97 | 1005.2 |
| 20260506134613 | 54 | 141 | 1.0 | 3.0 | 0.08 | 0.24 | 0.17 | 97 | 1005.4 |
| 20260506133713 | 54 | 159 | 2.0 | 5.0 | 0.09 | 0.23 | 0.16 | 96 | 1005.7 |
| 20260506132813 | 54 | 163 | 2.0 | 6.0 | 0.09 | 0.22 | 0.15 | 96 | 1005.9 |
| 20260506131913 | 54 | 152 | 1.0 | 6.0 | 0.07 | 0.20 | 0.14 | 96 | 1006.0 |
| 20260506131013 | 54 | 167 | 3.0 | 7.0 | 0.08 | 0.20 | 0.13 | 96 | 1006.3 |
| 20260506130113 | 54 | 177 | 4.0 | 9.0 | 0.06 | 0.18 | 0.11 | 97 | 1006.3 |
| 20260506125213 | 53 | 185 | 2.0 | 7.0 | 0.04 | 0.16 | 0.09 | 97 | 1006.6 |
| 20260506124313 | 53 | 182 | 1.0 | 4.0 | 0.04 | 0.15 | 0.08 | 97 | 1006.3 |
| 20260506123413 | 53 | 0 | 0.0 | 4.0 | 0.03 | 0.14 | 0.07 | 97 | 1006.0 |
| 20260506122513 | 53 | 0 | 0.0 | 1.0 | 0.02 | 0.13 | 0.06 | 97 | 1006.1 |
| 20260506121613 | 53 | 0 | 0.0 | 2.0 | 0.02 | 0.13 | 0.06 | 97 | 1006.0 |
| 20260506120713 | 53 | 0 | 0.0 | 1.0 | 0.02 | 0.12 | 0.05 | 97 | 1006.0 |
| 20260506115813 | 53 | 0 | 0.0 | 1.0 | 0.02 | 0.12 | 0.05 | 97 | 1006.1 |
| 20260506114913 | 53 | 0 | 0.0 | 1.0 | 0.02 | 0.12 | 0.05 | 97 | 1006.2 |
| 20260506113113 | 52 | 0 | 0.0 | 2.0 | 0.02 | 0.11 | 0.04 | 97 | 1006.1 |
| 20260506112213 | 52 | 0 | 0.0 | 1.0 | 0.02 | 0.11 | 0.04 | 97 | 1006.2 |
| 20260506111313 | 52 | 0 | 0.0 | 1.0 | 0.02 | 0.11 | 0.04 | 97 | 1006.3 |
| 20260506105513 | 52 | 0 | 0.0 | 0.0 | 0.03 | 0.10 | 0.03 | 97 | 1006.3 |
| 20260506104613 | 52 | 0 | 0.0 | 0.0 | 0.03 | 0.10 | 0.03 | 97 | 1006.4 |
| 20260506103713 | 52 | 0 | 0.0 | 0.0 | 0.02 | 0.09 | 0.02 | 96 | 1006.3 |
| 20260506101913 | 51 | 0 | 0.0 | 0.0 | 0.02 | 0.09 | 0.02 | 96 | 1006.1 |
| 20260506101013 | 51 | 0 | 0.0 | 0.0 | 0.01 | 0.08 | 0.01 | 96 | 1006.0 |
| 20260506100113 | 51 | 0 | 0.0 | 0.0 | 0.00 | 0.07 | 0.00 | 96 | 1005.9 |
| 20260506095213 | 51 | 0 | 0.0 | 0.0 | 0.00 | 0.07 | 0.00 | 96 | 1005.8 |
| 20260506094313 | 51 | 0 | 0.0 | 0.0 | 0.00 | 0.07 | 0.00 | 96 | 1005.6 |
| 20260506093413 | 51 | 0 | 0.0 | 0.0 | 0.00 | 0.07 | 0.00 | 96 | 1005.6 |
| 20260506092513 | 51 | 0 | 0.0 | 0.0 | 0.00 | 0.07 | 0.00 | 96 | 1005.7 |
| 20260506090713 | 51 | 0 | 0.0 | 0.0 | 0.00 | 0.07 | 0.00 | 96 | 1006.0 |
| 20260506085813 | 51 | 0 | 0.0 | 1.0 | 0.00 | 0.07 | 0.00 | 96 | 1006.1 |
| 20260506084913 | 51 | 0 | 0.0 | 1.0 | 0.00 | 0.07 | 0.00 | 95 | 1006.2 |
| 20260506081313 | 52 | 0 | 0.0 | 0.0 | 0.00 | 0.07 | 0.00 | 95 | 1006.0 |
| 20260506080413 | 52 | 0 | 0.0 | 0.0 | 0.00 | 0.07 | 0.00 | 95 | 1006.0 |
| 20260506072813 | 52 | 0 | 0.0 | 1.0 | 0.00 | 0.07 | 0.00 | 93 | 1006.1 |
| 20260506071013 | 51 | 0 | 0.0 | 0.0 | 0.00 | 0.07 | 0.00 | 93 | 1006.2 |
| 20260506070113 | 51 | 0 | 0.0 | 0.0 | 0.00 | 0.07 | 0.00 | 93 | 1006.3 |
| 20260506062513 | 51 | 0 | 0.0 | 0.0 | 0.00 | 0.07 | 0.00 | 93 | 1006.8 |
| 20260506061613 | 51 | 0 | 0.0 | 0.0 | 0.00 | 0.07 | 0.00 | 93 | 1006.8 |
| 20260506060713 | 51 | 0 | 0.0 | 1.0 | 0.00 | 0.07 | 0.00 | 92 | 1007.1 |
| 20260506050413 | 52 | 0 | 0.0 | 0.0 | 0.00 | 0.07 | 0.00 | 92 | 1008.0 |
| 20260506044613 | 52 | 0 | 0.0 | 0.0 | 0.00 | 0.07 | 0.00 | 92 | 1008.1 |
| 20260506043713 | 53 | 37 | 0.0 | 4.0 | 0.00 | 0.07 | 0.00 | 91 | 1008.0 |
| 20260506042813 | 53 | 29 | 1.0 | 7.0 | 0.00 | 0.07 | 0.00 | 91 | 1007.9 |
| 20260506041913 | 53 | 28 | 0.0 | 7.0 | 0.00 | 0.07 | 0.00 | 91 | 1007.9 |
| 20260506035213 | 54 | 0 | 0.0 | 2.0 | 0.00 | 0.07 | 0.07 | 92 | 1008.4 |
| 20260506034313 | 54 | 326 | 1.0 | 2.0 | 0.00 | 0.07 | 0.07 | 92 | 1008.7 |
| 20260506033413 | 54 | 343 | 1.0 | 7.0 | 0.00 | 0.07 | 0.07 | 93 | 1008.5 |
| 20260506032513 | 54 | 2 | 1.0 | 5.0 | 0.00 | 0.07 | 0.07 | 94 | 1008.5 |
| 20260506031613 | 54 | 330 | 0.0 | 2.0 | 0.00 | 0.07 | 0.07 | 94 | 1008.4 |
| 20260506030713 | 54 | 332 | 1.0 | 2.0 | 0.00 | 0.07 | 0.07 | 94 | 1008.3 |
| 20260506025813 | 55 | 325 | 1.0 | 4.0 | 0.01 | 0.07 | 0.07 | 94 | 1008.4 |
| 20260506024913 | 56 | 322 | 1.0 | 5.0 | 0.01 | 0.07 | 0.07 | 94 | 1008.3 |
| 20260506024013 | 56 | 311 | 0.0 | 5.0 | 0.01 | 0.07 | 0.07 | 95 | 1008.3 |
| 20260506023113 | 57 | 0 | 0.0 | 3.0 | 0.01 | 0.07 | 0.07 | 95 | 1008.0 |
| 20260506022213 | 57 | 0 | 0.0 | 3.0 | 0.01 | 0.07 | 0.07 | 95 | 1008.1 |
| 20260506021313 | 57 | 0 | 0.0 | 2.0 | 0.01 | 0.07 | 0.07 | 95 | 1008.1 |
| 20260506015513 | 58 | 0 | 0.0 | 2.0 | 0.00 | 0.06 | 0.06 | 94 | 1007.8 |
| 20260506013713 | 58 | 0 | 0.0 | 3.0 | 0.00 | 0.06 | 0.06 | 94 | 1007.6 |
| 20260506011913 | 58 | 0 | 0.0 | 0.0 | 0.00 | 0.06 | 0.06 | 94 | 1007.6 |
| 20260506011013 | 58 | 0 | 0.0 | 2.0 | 0.00 | 0.06 | 0.06 | 94 | 1007.3 |
| 20260506010113 | 58 | 0 | 0.0 | 2.0 | 0.00 | 0.06 | 0.06 | 95 | 1007.1 |
| 20260506005213 | 58 | 0 | 0.0 | 1.0 | 0.00 | 0.06 | 0.06 | 95 | 1006.9 |
| 20260506004313 | 58 | 0 | 0.0 | 0.0 | 0.00 | 0.06 | 0.06 | 95 | 1006.9 |
| 20260506003413 | 58 | 0 | 0.0 | 0.0 | 0.00 | 0.06 | 0.06 | 95 | 1006.9 |
| 20260506002513 | 58 | 0 | 0.0 | 0.0 | 0.00 | 0.06 | 0.06 | 95 | 1006.7 |
| 20260506001613 | 58 | 0 | 0.0 | 0.0 | 0.00 | 0.06 | 0.06 | 94 | 1006.6 |
| 20260506000713 | 58 | 0 | 0.0 | 0.0 | 0.00 | 0.06 | 0.06 | 93 | 1006.4 |